Regional Weather Roundup
Issued by NWS

Home | Current Version | Previous Version | Graphics & Text | Print | Product List | Glossary On
Versions: 1 2 3 4 5 6 7 8 9 10 11 12 13 14 15 16 17 18 19 20 21 22 23 24 25 26 27 28 29 30 31 32 33 34 35 36 37 38 39 40 41 42 43 44 45 46 47 48 49 50
000
ASUS43 KDMX 160507
RWRIA

WEATHER ROUNDUP FOR IOWA
NATIONAL WEATHER SERVICE DES MOINES IA
1200 AM CDT TUE SEP 16 2014

NOTE: "FAIR" INDICATES FEW OR NO CLOUDS BELOW 12,000 FEET WITH NO
SIGNIFICANT WEATHER AND/OR OBSTRUCTIONS TO VISIBILITY.

* - THESE STATIONS ARE NOT NWS STATIONS...THUS NOT UNDER NWS
QUALITY CONTROL.  THEY ALSO DO NOT REPORT WEATHER SUCH
AS PRECIPITATION OR FOG.

IAZ001>003-012>014-020>022-031>034-043>046-160600-
   NORTHWEST IOWA

CITY           SKY/WX    TMP DP  RH WIND       PRES   REMARKS
CARROLL *      CLEAR     39  39 100 CALM      30.26S
CHEROKEE *     CLEAR     41  41 100 CALM      30.26S
DENISON *      CLEAR     43  43 100 CALM      30.25S
LE MARS *        N/A     43  41  93 CALM      30.26S
ORANGE CITY *  CLEAR     46  39  76 CALM      30.26S
SHELDON *      CLEAR     39  39 100 CALM      30.25R
SIOUX CITY     CLEAR     45  43  93 CALM      30.26S
SPENCER        CLEAR     40  38  93 CALM      30.25S
STORM LAKE *   CLEAR     43  41  93 CALM      30.25S
$$

IAZ055>058-069>071-079>083-090>094-160600-
   SOUTHWEST IOWA

CITY           SKY/WX    TMP DP  RH WIND       PRES   REMARKS
ATLANTIC *     CLEAR     43  43 100 CALM      30.26S
AUDUBON *      CLEAR     43  41  93 CALM      30.27S
CLARINDA *     FOG       43  43 100 CALM      30.28S VSB 1/2
COUNCIL BLFS * CLEAR     50  48  93 CALM      30.26R
CRESTON *      CLEAR     46  45  93 N3        30.27R
HARLAN  *      CLEAR     43  43 100 CALM      30.30S
LAMONI         CLEAR     49  45  86 NW3       30.25S
SHENANDOAH *     N/A     45  45 100 CALM      30.28R
$$

IAZ047>049-059>061-072>074-084-160600-
   CENTRAL IOWA

CITY           SKY/WX    TMP DP  RH WIND       PRES   REMARKS
AMES           CLEAR     43  42  97 CALM      30.25S
ANKENY *       CLEAR     45  45 100 CALM      30.25S FOG
CHARITON *     CLEAR     48  46  93 NW5       30.25S
DES MOINES     CLEAR     51  46  83 CALM      30.25S
GRINNELL*      CLEAR     45  43  93 NW5       30.25S
KNOXVILLE *    CLEAR     50  46  87 N3        30.23F
MARSHALLTOWN   CLEAR     43  42  97 NW3       30.24S
PELLA *        CLEAR     46  45  95 CALM      30.26S
PERRY *          N/A     43  43 100 W3        30.26S
$$

IAZ004>006-015-016-023>025-035-036-160600-
   NORTH CENTRAL IOWA

CITY           SKY/WX    TMP DP  RH WIND       PRES   REMARKS
ALGONA *       CLEAR     45  41  87 CALM      30.25F
CLARION *        N/A     39  39 100 CALM      30.25F
ESTHERVILLE    CLEAR     41  40  96 SW3       30.24F
FORT DODGE *   CLEAR     43  41  93 CALM      30.25F
MASON CITY     CLEAR     41  39  93 W3        30.26S
FOREST CITY *  CLEAR     39  39 100 CALM      30.24F FOG
IOWA FALLS *     N/A     41  39  93 CALM      30.26S
$$

IAZ007>011-017>019-026>030-037>042-050>054-066-160600-
   NORTHEAST IOWA

CITY           SKY/WX    TMP DP  RH WIND       PRES   REMARKS
CEDAR RAPIDS   CLEAR     45  43  93 NW6       30.23R
CHARLES CITY * CLEAR     43  41  93 NW3       30.25S
CLINTON *      CLEAR     43  43 100 NW3       30.24S
DECORAH *      PTCLDY    45  45 100 CALM      30.22S
DUBUQUE        CLEAR     41  40  96 CALM      30.22S
MONTICELLO *   CLEAR     41  41 100 CALM      30.23S
OELWEIN *      CLEAR     45  43  93 CALM      30.25R
WATERLOO       CLEAR     43  41  93 CALM      30.24R
$$

IAZ064-065-067-068-078-160600-
   EAST CENTRAL IOWA

CITY           SKY/WX    TMP DP  RH WIND       PRES   REMARKS
DAVENPORT      CLEAR     44  42  93 N5        30.22S
IOWA CITY      CLEAR     47  46  97 W3        30.24R
MT. PLEASANT * CLEAR     48  48 100 CALM      30.23S
MUSCATINE *    CLEAR     48  45  87 W5        30.23R
QUAD CITIES    CLEAR     47  45  93 CALM      30.21S
$$

IAZ062-063-075>077-085>089-095>099-160600-
   SOUTHEAST IOWA

CITY           SKY/WX    TMP DP  RH WIND       PRES   REMARKS
BURLINGTON     CLEAR     49  48  97 N7        30.22S
FAIRFIELD *    CLEAR     46  45  93 NW6       30.24S
FORT MADISON * CLEAR     52  48  87 CALM      30.24R
KEOKUK *       CLEAR     52  50  93 CALM      30.22R
OSKALOOSA *      N/A     46  45  93 CALM      30.25R
CENTERVILLE *  CLEAR     48  48 100 NW5       30.26S
OTTUMWA        CLEAR     47  44  90 N6        30.24S
WASHINGTON *   CLEAR     46  46 100 CALM      30.23F
$$

ABBREVIATIONS USED IN REMARKS
   TC - TEMPERATURES IN CELSIUS
  WCI - WIND CHILL INDEX
   HX - HEAT INDEX
  VSB - VISIBILITY
$$




USA.gov is the U.S. government's official web portal to all federal, state and local government web resources and services.